sat.trackr.live / text

‹ back to catalog

ZIYUAN 3-02 (ZY 3-02)

NORAD 41556 · 2016-033A

PAYLOAD ACTIVE UNKNOWN

§ Identity

Operator
Country
PRC
Launch date
2016-05-30
Launch site
TAISC
Launch vehicle
Mass (kg)
RCS (m²)
4.61

Purposes: earth_obs

External: N2YO · Heavens-Above · Gunter

§ Orbital elements

Epoch: 2026-09-20T04:02:23.814816Z

Period
94.66 min
Inclination
97.3759°
Eccentricity
0.0012143
Mean motion
15.21303188 rev/d
Perigee alt
493.6 km
Apogee alt
510.3 km
Semi-major
6,880.0 km
B*
1.4954e-4
RAAN
337.0743°
Arg perigee
333.0400°
Mean anomaly
27.0203°
Rev number
57,242

§ Raw data

ZIYUAN 3-02 (ZY 3-02)1 41556U 16033A   26263.16833119  .00003282  00000+0  14954-3 0  99952 41556  97.3759 337.0743 0012143 333.0400  27.0203 15.21303188572420

JSON: /api/v1/satellites/41556 · /tle

For live sub-satellite position, see the globe view (requires WebGL).

§ Visibility from observer

Set your observer location to see the next 7 days of passes ≥ 10°. The values pass through the URL so the page stays shareable.

No JS? Fill the form by hand. The geolocation button needs JavaScript.

§ Radio — SatNOGS DB

ModeDescriptionDownlinkUplink
BPSK S-band telemetry 2.201 GHz

1 transmitter · refreshed weekly from db.satnogs.org